CZ-6A DEB, 61295

Orbit data source: Space-Track

CZ-6A DEB, 61295 is space debris in LEO originally from a launch on Tue, 06 Aug 2024 UTC launched from the Taiyaun Space Center, China (TSC). Debris objects in space refer to the collection of defunct objects orbiting the Earth. Examples of debris include non-operational satellites, rocket bodies, and fragments generated from explosions, collisions, or faulty payload assembly.

Loading next visibility...
Identifier
61295, 2024-140TG
Orbit
LEO
Country
Flag of CNCN / PRC
Related business
Manufacturer
SAST
Mission
Spacecraft
Bus & Motor
Unknown
Mass
Unknown
Launch date (UTC)
2024-08-06 (2 years ago)
Launch vehicle
Unknown
Launch site
Taiyaun Space Center, China (TSC)
Object type
Payload
Rocket body
Debris
Shape & HBR
Unknown shape, 0.1 m
Radar Cross Section
Medium (>0.1 m² and <1 m²)

Expand to show TLE details & history
Last TLE update: 13 hours ago

TLE from 13 hours ago
0 CZ-6A DEB
1 61295U 24140TG  26171.30235110  .00000593  00000-0  26976-3 0  9996
2 61295  89.0136 275.4008 0049500 164.8881 195.3801 14.19834469 93729
Epoch: 2026-06-20T07:15Z
TLE epoch observation values (Epoch: 2026-06-20T07:15:23.135Z)
Latitude
-0.00007°
Longitude
-101.96452°
Altitude
863.368 km
Speed
7.403 km/s
True Right ascension
18h 21m 36s
True Declination
0° 00' 00"
Sunlit
Object was in full shadow at epoch
Visualization orbit readout
Latitude
Unknown
Longitude
Unknown
Altitude
Unknown
Speed
Unknown
Apparent Right ascension
Unknown
Apparent Declination
Unknown
Sunlit
N/A
Visualization observer readout
Local Sidereal Time
07:23:41
Azimuth
Unknown
Elevation
Unknown
Doppler factor
Unknown
Orbital elements
Apogee altitude
858.509 km
Perigee altitude
787.219 km
Semi-major axis
7,201.001 km
Eccentricity
0.00495
Inclination
89.0136°
RAAN
275.4008°
Arg. of periapsis
164.8881°
True anomaly
195.23055°
Mean anomaly
195.3801°
Eccentric anomaly
195.30524°
Mean motion
3.55184 °/min
Orbital period
101.36 mins
BSTAR
0.00026976
Loading maneuver chart data...
Computing Atmospheric mass density...
Loading historical data...
Loading historical data...
Loading historical data...
Loading historical data...
Loading historical data...
Loading historical data...
Loading historical data...

Documentation

Showing up to 5 results
|